Cancun, Mexico

5:30 AM on July 27, 2017 (GMT +0000)
Cancun International

Weather History for MMUN - December, 2013

Change the Weather History Date:

Tuesday, December 17, 2013

  Actual Average Record
Temperature  
Mean Temperature 74 °F -  
Max Temperature 78 °F 81 °F 87 °F (2006)
Min Temperature 71 °F 64 °F 57 °F (2003)
Cooling Degree Days 10    
Growing Degree Days 24 (Base 50)    
Moisture  
Dew Point 71 °F    
Average Humidity 91    
Maximum Humidity 100    
Minimum Humidity 78    
Precipitation  
Precipitation 2.65 in - - ()
Sea Level Pressure  
Sea Level Pressure 30.09 in    
Wind  
Wind Speed 4 mph ()    
Max Wind Speed 9 mph    
Max Gust Speed -    
Visibility 5.5 miles    
Events Rain    
Averages and records for this station are not official NWS values.
T = Trace of Precipitation, MM = Missing Value Source: Averaged Metar Reports

Daily Weather History Graph

Daily Weather History Graph

Search for Another Location

Airport or City:

Trip Planner

Search our weather history database for the weather conditions in past years. The results will help you decide how hot, cold, wet, or windy it might be!

Date:

Astronomy

Dec. 17, 2013 Rise Set
Actual Time 6:18 AM CST 5:09 PM CST
Civil Twilight 5:53 AM CST 5:33 PM CST
Nautical Twilight 5:26 AM CST 6:01 PM CST
Astronomical Twilight 4:58 AM CST 6:28 PM CST
Moon 5:41 PM CST (12/17) 6:20 AM CST (12/17)
Length of Visible Light 11h 39m
Length of Day
10h 51m
Full, 100% of the Moon is Illuminated
Dec 17
Full
Dec 25
Last Quarter
Jan 1
New
Jan 7
First Quarter
Jan 15
Full

Hourly Weather History & Observations

Time (CST) Temp. Dew Point Humidity Pressure Visibility Wind Dir Wind Speed Gust Speed Precip Events Conditions
12:46 AM 73.4 °F 71.6 °F 94% 30.08 in 6.0 mi NW 3.5 mph - N/A   Overcast
1:45 AM 73.4 °F 71.6 °F 94% 30.07 in 6.0 mi NNW 4.6 mph - N/A   Overcast
2:49 AM 71.6 °F 69.8 °F 94% 30.05 in 5.0 mi North 5.8 mph - N/A Rain Light Rain
3:42 AM 71.6 °F 71.6 °F 100% 30.07 in 5.0 mi North 3.5 mph - N/A Rain Light Rain
4:46 AM 71.6 °F 71.6 °F 100% 30.07 in 5.0 mi North 9.2 mph - N/A Rain Light Rain
5:44 AM 71.6 °F 71.6 °F 100% 30.07 in 4.0 mi NE 2.3 mph - N/A Rain Rain
6:47 AM 71.6 °F 71.6 °F 100% 30.11 in 2.0 mi ESE 5.8 mph - N/A Rain Heavy Rain
7:18 AM 71.6 °F 71.6 °F 100% 30.11 in 3.0 mi NE 2.3 mph - N/A Rain Light Rain
7:43 AM 73.4 °F 71.6 °F 94% 30.12 in 4.0 mi NE 2.3 mph - N/A Rain Light Rain
8:51 AM 73.4 °F 71.6 °F 94% 29.99 in 6.0 mi East 6.9 mph - N/A   Overcast
9:44 AM 75.2 °F 71.6 °F 89% 30.15 in 6.0 mi ENE 5.8 mph - N/A   Overcast
9:59 AM 75.2 °F 71.6 °F 89% 30.15 in 6.0 mi ENE 5.8 mph - N/A   Overcast
10:45 AM 75.2 °F 71.6 °F 89% 30.14 in 6.0 mi NNE 8.1 mph - N/A   Overcast
11:44 AM 77.0 °F 71.6 °F 83% 30.10 in 6.0 mi NNE 4.6 mph - N/A   Overcast
12:41 PM 78.8 °F 73.4 °F 83% 30.08 in 6.0 mi East 6.9 mph - N/A   Overcast
1:51 PM 73.4 °F 71.6 °F 94% 30.07 in 6.0 mi NNE 5.8 mph - N/A   Overcast
2:45 PM 75.2 °F 73.4 °F 94% 30.04 in 6.0 mi NNW 2.3 mph - N/A   Overcast
3:41 PM 75.2 °F 71.6 °F 89% 30.06 in 6.0 mi NNE 4.6 mph - N/A   Overcast
4:42 PM 75.2 °F 71.6 °F 89% 30.07 in 6.0 mi North 3.5 mph - N/A   Overcast
5:42 PM 75.2 °F 69.8 °F 83% 30.07 in 6.0 mi NNE 5.8 mph - N/A   Overcast
6:43 PM 75.2 °F 69.8 °F 83% 30.10 in 6.0 mi NE 4.6 mph - N/A   Overcast
7:44 PM 75.2 °F 69.8 °F 83% 30.12 in 6.0 mi NNE 5.8 mph - N/A   Overcast
8:44 PM 75.2 °F 68.0 °F 78% 30.10 in 6.0 mi NNE 2.3 mph - N/A   Overcast
9:48 PM 73.4 °F 68.0 °F 83% 30.14 in 6.0 mi North 5.8 mph - N/A   Overcast
10:47 PM 71.6 °F 68.0 °F 88% 30.13 in 6.0 mi NNW 5.8 mph - N/A   Overcast
11:46 PM 71.6 °F 68.0 °F 88% 30.08 in 6.0 mi NNW 5.8 mph - N/A   Overcast